Hourly Data Report for October 06, 2017

All times are specified in Local Standard Time (LST). Add 1 hour to adjust for Daylight Saving Time where and when it is observed.

CARIBOU POINT (AUT)
NOVA SCOTIA

45°46'00.000" N
62°41'00.000" W
2.40 m
8200774
71415
WBK

Download Data

Hourly Data (October 2017)
Hourly Data Report for October 6, 2017
Temp Definition
°C
Dew Point Temp Definition
°C
Rel Hum Definition
%
Wind Dir Definition
10's deg

Wind Spd Definition
km/h
Visibility Definition
km
Stn Press Definition
kPa
Hmdx Definition


Wind Chill Definition


Weather Definition


TIME
00:00 13.1 9.6 79 22 11   101.24     LegendNANA
01:00 12.8 9.7 82 22 9   101.23     LegendNANA
02:00 12.2 9.5 84 21 9   101.22     LegendNANA
03:00 11.9 9.8 87 21 12   101.19     LegendNANA
04:00 11.9 9.9 87 24 5   101.25     LegendNANA
05:00 12.3 10.0 86 22 13   101.22     LegendNANA
06:00 12.4 10.0 85 24 8   101.30     LegendNANA
07:00 13.3 9.8 80 26 15   101.38     LegendNANA
08:00 13.6 9.9 78 26 16   101.44     LegendNANA
09:00 14.4 9.6 73 27 19   101.50     LegendNANA
10:00 14.7 10.2 74 29 29   101.51     LegendNANA
11:00 15.3 10.3 72 28 24   101.51     LegendNANA
12:00 15.6 9.3 66 29 28   101.51     LegendNANA
13:00 15.5 8.5 63 29 27   101.50     LegendNANA
14:00 15.2 8.2 63 31 18   101.50     LegendNANA
15:00 14.9 8.2 64 32 8   101.48     LegendNANA
16:00 14.9 8.0 63 0 1   101.48     LegendNANA
17:00 14.2 8.3 68 0 1   101.54     LegendNANA
18:00 13.5 9.0 74 15 5   101.55     LegendNANA
19:00 12.7 9.2 79 23 8   101.62     LegendNANA
20:00 12.1 7.9 75 24 7   101.64     LegendNANA
21:00 12.1 8.6 79 23 7   101.68     LegendNANA
22:00 11.3 8.6 84 24 6   101.75     LegendNANA
23:00 11.9 9.0 82 26 12   101.82     LegendNANA

Notes on Data Quality.

Legend

  • E = Estimated
  • M = Missing
  • NA = Not Available
  • ‡ = Partner data that is not subject to review by the National Climate Archives
Date modified: